sat.trackr.live / text

‹ back to catalog

STARLINK-11696 [DTC]

NORAD 64324 · 2025-124H

PAYLOAD ACTIVE UNKNOWN

§ Identity

Operator
Country
US
Launch date
2025-06-10
Launch site
AFETR
Launch vehicle
Mass (kg)
RCS (m²)

Purposes: comms

External: N2YO · Heavens-Above · Gunter

§ Orbital elements

Epoch: 2026-09-19T09:45:32.003424Z

Period
91.67 min
Inclination
42.9995°
Eccentricity
0.0000786
Mean motion
15.70923317 rev/d
Perigee alt
355.7 km
Apogee alt
356.8 km
Semi-major
6,734.4 km
B*
1.3054e-3
RAAN
301.3186°
Arg perigee
239.7899°
Mean anomaly
120.2891°
Rev number
7,330

§ Raw data

STARLINK-11696 [DTC]1 64324U 25124H   26262.40662041  .00171144  00000+0  13054-2 0  99962 64324  42.9995 301.3186 0000786 239.7899 120.2891 15.70923317 73303

JSON: /api/v1/satellites/64324 · /tle

For live sub-satellite position, see the globe view (requires WebGL).

§ Visibility from observer

Set your observer location to see the next 7 days of passes ≥ 10°. The values pass through the URL so the page stays shareable.

No JS? Fill the form by hand. The geolocation button needs JavaScript.